Powrót do katalogu

NOAA 16 DEB

AktywnySSO
NORAD 41263·DEBRIS·🇺🇸 United States

Wystrzelony Sep 21, 2000 z Vandenberg Space Force Base

Loading…

Następne Przeloty (najbliższe 24 godziny)

TLE

ŚwieżeSource: Space-Track

Epoka: Sep 12, 2026, 06:36 UTC

1 41263U 00055FP  26255.27551026  .00003106  00000-0  15118-2 0  9992
2 41263  98.8301 275.6974 0066959 169.2814 190.9806 14.17738631547979

Śledź NOAA 16 DEB w czasie rzeczywistym z AllMySat

Download on the App Store